Date,TemperatureHighF,TemperatureAvgF,TemperatureLowF,DewpointHighF,DewpointAvgF,DewpointLowF,HumidityHigh,HumidityAvg,HumidityLow,PressureMaxIn,PressureMinIn,WindSpeedMaxMPH,WindSpeedAvgMPH,GustSpeedMaxMPH,PrecipitationSumIn
2014-1-1,31,26,18,22,15,8,79,64,52,30.43,30.26,2,0,10,0.00
2014-1-2,29,22,12,21,17,8,87,79,65,30.26,29.71,5,2,12,0.00
2014-1-3,15,11,4,11,5,-4,87,75,61,30.50,29.67,11,4,19,0.00
2014-1-4,25,11,-1,10,2,-5,84,69,46,30.55,30.32,4,0,10,0.00
2014-1-5,32,19,4,31,16,0,94,87,77,30.34,29.76,1,0,10,0.01
2014-1-6,56,38,14,55,31,-5,96,77,44,29.79,29.39,9,3,23,0.75
2014-1-7,13,6,1,-5,-10,-14,56,48,42,30.41,29.79,9,5,18,0.01
2014-1-8,20,13,6,5,0,-6,65,55,48,30.58,30.40,4,1,10,0.00
2014-1-9,33,23,14,16,11,5,80,61,43,30.67,30.51,4,0,7,0.00
2014-1-10,32,28,20,30,24,15,93,85,74,30.60,30.23,0,0,4,0.04
2014-1-11,61,46,32,59,44,30,100,94,89,30.23,29.31,5,1,12,0.70
2014-1-12,51,42,35,47,31,26,85,65,55,30.08,29.42,9,3,17,0.00
2014-1-13,51,40,26,39,31,23,91,73,57,30.16,29.89,3,0,6,0.00
2014-1-14,44,41,36,43,38,31,94,90,72,29.90,29.68,1,0,4,0.30
2014-1-15,48,37,28,42,34,26,100,91,76,30.02,29.86,2,0,5,0.00
2014-1-16,38,36,31,36,32,28,94,84,79,29.96,29.85,2,0,5,0.00
2014-1-17,41,32,23,30,26,20,93,80,59,30.00,29.89,1,0,5,0.00
2014-1-18,37,32,26,31,25,17,92,78,66,29.89,29.69,8,2,15,0.14
2014-1-19,34,28,21,24,18,14,73,67,61,29.86,29.67,5,1,11,0.00
2014-1-20,42,36,28,30,25,16,80,64,53,29.92,29.59,6,2,13,0.00
2014-1-21,28,17,9,16,10,3,86,74,52,30.02,29.86,5,2,12,0.00
2014-1-22,15,9,2,4,-4,-7,76,58,43,30.03,29.82,9,4,15,0.00
2014-1-23,20,11,3,6,0,-6,71,60,47,30.32,30.02,7,1,15,0.00
2014-1-24,19,13,7,3,-1,-4,67,55,39,30.41,30.08,7,2,14,0.00
2014-1-25,23,19,14,19,11,2,87,72,57,30.08,29.46,5,1,10,0.00
2014-1-26,22,19,14,16,7,-1,86,59,43,29.93,29.48,7,2,14,0.00
2014-1-27,40,25,18,27,13,-1,82,60,35,30.10,29.63,11,3,19,0.09
2014-1-28,18,14,10,0,-4,-9,57,45,32,30.40,30.11,7,2,14,0.00
2014-1-29,22,15,10,7,1,-5,83,55,36,30.32,30.11,4,1,11,0.00
2014-1-30,28,17,5,8,3,-3,75,55,38,30.48,30.21,3,0,9,0.00
2014-1-31,37,28,14,19,14,7,73,58,46,30.25,30.10,2,0,5,0.01
2014-2-1,44,33,25,29,23,18,88,68,43,30.34,30.04,2,0,8,0.01
2014-2-2,53,38,23,39,30,20,92,77,56,30.11,29.93,3,0,8,0.00
2014-2-3,39,31,24,32,28,20,92,88,73,30.33,30.09,2,0,6,0.01
2014-2-4,32,24,12,26,20,8,94,84,69,30.49,30.25,1,0,4,0.06
2014-2-5,32,30,26,30,28,22,99,91,77,30.27,29.65,7,1,14,0.01
2014-2-6,29,24,17,23,16,10,83,74,59,30.31,29.99,6,1,11,0.00
2014-2-7,32,25,19,18,15,13,86,67,53,30.35,30.23,4,1,9,0.00
2014-2-8,28,25,20,11,8,1,61,50,38,30.34,30.16,2,0,5,0.00
2014-2-9,28,22,13,20,11,5,88,65,47,30.22,30.01,1,0,5,0.00
2014-2-10,27,21,12,18,10,4,87,62,46,30.30,30.01,7,2,13,0.00
2014-2-11,25,16,7,6,4,1,83,61,43,30.50,30.29,6,2,13,0.00
2014-2-12,24,18,6,12,6,0,92,60,43,30.60,30.31,2,0,6,0.00
2014-2-13,32,27,18,30,25,12,94,91,72,30.31,29.05,6,2,13,0.00
2014-2-14,39,34,28,31,27,22,94,78,60,29.79,29.06,10,2,17,0.17
2014-2-15,36,30,25,29,25,14,92,81,62,29.80,29.60,12,2,21,0.05
2014-2-16,27,23,18,14,10,8,66,59,47,30.14,29.79,7,4,18,0.00
2014-2-17,33,22,15,11,5,0,72,50,29,30.41,30.14,7,2,13,0.01
2014-2-18,38,28,19,30,21,11,89,77,65,30.34,29.96,7,1,14,0.18
2014-2-19,43,31,18,37,27,15,98,85,65,30.11,29.69,7,0,11,0.34
2014-2-20,49,40,29,33,28,24,91,65,42,30.26,30.01,4,0,9,0.00
2014-2-21,44,37,32,42,35,29,95,93,90,30.03,29.64,5,0,6,0.18
2014-2-22,53,41,28,31,27,25,93,62,34,30.05,29.92,7,1,18,0.00
2014-2-23,52,40,25,31,28,21,89,63,43,30.04,29.85,7,0,11,0.00
2014-2-24,44,33,25,28,17,9,63,51,39,30.09,29.82,9,4,17,0.00
2014-2-25,31,25,16,19,12,8,77,58,46,30.10,29.94,7,2,13,0.00
2014-2-26,29,22,12,20,9,-2,86,60,34,29.99,29.83,9,2,16,0.01
2014-2-27,29,17,4,13,3,-10,90,57,37,30.14,29.63,10,3,21,0.01
2014-2-28,24,14,6,2,-4,-11,64,44,34,30.45,30.14,5,1,10,0.00
2014-3-1,34,22,6,18,10,1,84,59,41,30.44,30.16,2,0,7,0.00
2014-3-2,39,34,29,26,20,13,63,58,52,30.16,29.99,5,1,9,0.00
2014-3-3,29,20,13,14,4,-2,67,50,42,30.36,30.03,7,3,16,0.00
2014-3-4,28,18,8,11,2,-3,65,50,35,30.45,30.26,2,0,5,0.00
2014-3-5,35,28,21,16,12,8,72,53,38,30.46,30.22,5,1,10,0.00
2014-3-6,30,21,12,14,6,-1,75,51,36,30.65,30.46,4,1,9,0.00
2014-3-7,37,30,20,26,20,11,75,68,63,30.50,29.93,2,0,7,0.00
2014-3-8,55,43,31,33,29,25,86,61,42,29.93,29.78,6,1,12,0.00
2014-3-9,41,38,35,30,19,12,71,47,34,30.03,29.89,8,3,17,0.00
2014-3-10,50,41,35,32,26,18,75,56,47,29.95,29.61,4,1,10,0.00
2014-3-11,64,52,34,40,36,28,80,57,39,29.70,29.57,5,1,13,0.00
2014-3-12,54,46,31,45,40,23,93,78,66,29.68,29.03,10,1,17,0.21
2014-3-13,31,21,16,22,5,-1,72,50,34,30.11,29.20,14,8,26,0.01
2014-3-14,46,35,20,27,16,1,62,46,33,30.23,29.91,6,2,11,0.00
2014-3-15,55,47,37,34,28,25,69,50,36,30.01,29.75,10,3,17,0.00
2014-3-16,42,32,28,26,14,7,56,48,39,30.21,30.00,8,4,15,0.00
2014-3-17,31,26,20,10,6,0,49,42,33,30.15,30.05,5,2,9,0.00
2014-3-18,42,31,22,22,11,4,78,45,21,30.31,30.13,4,1,9,0.00
2014-3-19,41,34,25,36,29,20,93,83,70,30.32,29.83,7,0,11,0.74
2014-3-20,51,44,38,41,32,24,94,68,42,29.92,29.75,9,3,18,0.00
2014-3-21,50,42,33,25,23,21,70,47,34,30.06,29.91,8,3,18,0.00
2014-3-22,62,44,29,38,30,23,83,60,33,30.06,29.76,10,2,18,0.00
2014-3-23,40,36,25,27,19,6,63,50,36,30.15,30.00,8,3,16,0.00
2014-3-24,32,25,19,12,7,5,64,47,36,30.27,30.12,8,3,15,0.00
2014-3-25,38,29,17,19,15,11,81,58,37,30.18,29.86,4,0,9,0.00
2014-3-26,32,30,23,20,12,5,64,48,35,30.26,29.76,13,6,24,0.00
2014-3-27,43,31,19,20,11,7,63,45,28,30.43,30.25,5,1,11,0.00
2014-3-28,53,43,32,49,36,20,96,79,53,30.27,29.97,2,0,6,0.06
2014-3-29,50,44,39,48,42,38,94,91,78,30.19,29.68,4,0,9,1.79
2014-3-30,45,43,40,44,41,37,95,91,85,29.69,29.50,9,4,17,0.71
2014-3-31,52,43,36,37,34,29,91,71,51,30.09,29.69,9,4,16,0.04
2014-4-1,59,45,31,38,32,26,88,63,42,30.15,29.97,2,0,5,0.00
2014-4-2,54,44,37,43,38,33,89,79,66,30.16,30.05,3,0,6,0.00
2014-4-3,65,51,39,41,32,23,93,54,22,30.14,29.98,4,0,8,0.03
2014-4-4,44,41,38,42,38,36,93,89,80,30.08,29.76,4,0,11,0.21
2014-4-5,52,44,38,41,33,25,94,68,45,30.08,29.73,12,4,25,0.01
2014-4-6,61,45,32,32,25,22,68,47,24,30.22,30.08,6,1,13,0.00
2014-4-7,50,42,33,42,35,25,93,77,40,30.22,29.69,3,0,8,0.30
2014-4-8,63,52,44,56,43,35,96,74,49,29.68,29.40,10,3,19,0.17
2014-4-9,59,51,42,37,31,23,74,48,34,30.04,29.64,10,4,18,0.00
2014-4-10,65,50,30,38,30,21,79,48,34,30.22,30.02,6,2,14,0.00
2014-4-11,74,59,46,51,43,34,86,57,38,30.03,29.92,7,1,14,0.00
2014-4-12,72,59,44,50,42,34,90,58,29,30.23,30.01,4,1,9,0.00
2014-4-13,81,64,47,56,48,33,78,58,40,30.20,29.94,7,2,13,0.00
2014-4-14,78,68,62,58,56,53,83,66,44,30.00,29.82,9,3,18,0.00
2014-4-15,65,57,33,63,52,30,93,86,75,29.93,29.50,9,3,16,0.99
2014-4-16,45,37,29,30,21,17,89,54,34,30.58,29.92,11,5,21,0.01
2014-4-17,47,39,30,32,26,19,85,60,46,30.74,30.58,5,1,12,0.00
2014-4-18,50,40,30,34,30,27,92,70,47,30.62,30.27,2,0,6,0.00
2014-4-19,65,52,37,39,31,26,88,51,24,30.36,30.22,9,2,15,0.00
2014-4-20,56,48,38,33,29,27,67,48,39,30.50,30.33,5,1,10,0.00
2014-4-21,70,50,31,43,32,23,91,57,18,30.33,29.88,4,1,8,0.00
2014-4-22,73,57,43,54,47,40,90,73,43,29.88,29.51,5,1,9,0.01
2014-4-23,58,51,43,49,38,30,77,61,47,29.86,29.49,12,6,29,0.01
2014-4-24,59,49,40,31,23,19,64,39,22,30.03,29.85,12,5,29,0.00
2014-4-25,61,50,36,42,29,22,79,46,29,30.05,29.77,5,1,16,0.01
2014-4-26,67,52,45,50,44,39,94,76,41,29.89,29.68,6,1,16,0.45
2014-4-27,56,50,44,39,36,34,71,59,46,30.13,29.89,8,3,18,0.00
2014-4-28,64,53,38,40,36,33,85,56,33,30.13,30.00,4,0,16,0.00
2014-4-29,53,46,41,41,39,37,87,75,59,30.42,30.10,5,2,16,0.05
2014-4-30,47,43,40,46,41,37,95,92,84,30.41,29.96,3,1,16,3.14
2014-5-1,77,61,47,62,52,46,96,76,42,29.96,29.66,4,1,16,0.27
2014-5-2,65,60,53,49,42,37,77,54,39,29.85,29.71,6,2,16,0.00
2014-5-3,67,60,49,49,44,38,88,58,41,29.86,29.72,5,1,16,0.01
2014-5-4,63,56,50,49,40,29,92,59,32,29.81,29.66,10,3,20,0.01
2014-5-5,66,57,48,38,34,28,66,44,25,29.92,29.81,10,4,20,0.00
2014-5-6,67,57,46,39,35,29,72,45,30,30.08,29.87,7,1,14,0.00
2014-5-7,69,60,47,43,38,32,60,45,33,30.21,30.08,3,0,10,0.00
2014-5-8,57,54,51,49,46,42,92,73,58,30.19,30.16,0,0,10,0.17
2014-5-15,71,68,66,66,65,63,91,89,85,30.11,30.07,1,0,12,0.03
2014-5-16,68,65,56,66,63,54,94,93,88,30.07,29.79,4,1,12,0.51
2014-5-17,68,58,49,54,46,40,94,67,40,30.12,29.85,3,0,12,0.34
2014-5-18,63,54,44,45,41,34,93,62,38,30.20,30.11,4,0,12,0.10
2014-5-19,71,57,42,45,39,35,83,55,32,30.23,30.08,6,1,13,0.06
2014-5-20,78,64,46,47,43,38,83,51,28,30.15,29.96,4,1,11,0.02
2014-5-21,72,66,60,57,53,47,82,63,49,30.00,29.88,1,0,4,0.00
2014-5-22,65,62,58,62,59,57,96,91,82,29.88,29.78,1,0,3,0.52
2014-5-23,72,61,56,60,56,52,96,86,54,29.95,29.83,4,0,10,0.78
2014-5-24,67,59,54,59,55,52,95,87,65,30.09,29.92,1,0,3,0.17
2014-5-25,82,65,49,57,51,47,96,66,31,30.11,30.01,3,0,8,0.01
2014-5-26,86,71,54,58,54,50,91,59,34,30.06,29.88,3,1,9,0.00
2014-5-27,85,75,62,67,61,56,85,63,46,29.90,29.76,2,0,8,0.00
2014-5-28,71,60,54,64,54,46,89,83,76,30.17,29.78,0,0,8,0.00
2014-5-29,67,56,50,50,45,42,81,66,49,30.22,30.15,1,0,8,0.00
2014-5-30,77,63,51,55,50,44,83,65,40,30.16,29.97,2,0,8,0.00
2014-5-31,72,62,51,52,49,44,92,65,42,30.29,30.08,4,1,10,0.00
2014-6-1,79,63,48,51,46,41,94,59,29,30.37,30.24,1,0,5,0.00
2014-6-2,83,67,48,61,53,43,89,61,46,30.26,30.00,2,0,7,0.00
2014-6-3,89,72,60,69,63,56,93,75,49,30.02,29.79,2,0,5,0.02
2014-6-4,82,71,62,66,62,55,96,75,44,29.85,29.72,0,0,5,0.00
2014-6-5,76,66,60,62,58,50,95,76,48,29.81,29.65,3,0,10,0.50
2014-6-6,74,65,57,56,52,48,77,63,49,29.95,29.80,4,1,10,0.00
2014-6-7,83,68,53,59,55,50,91,66,41,30.00,29.91,2,0,8,0.00
2014-6-8,86,71,55,62,57,53,94,66,38,29.96,29.85,1,0,9,0.00
2014-6-9,72,65,61,65,61,55,95,89,58,29.96,29.88,0,0,2,1.23
2014-6-10,77,69,63,70,65,62,96,89,76,29.98,29.92,1,0,3,0.00
2014-6-11,69,65,61,67,61,58,93,86,76,30.10,29.97,0,0,5,0.00
2014-6-12,68,64,59,67,62,58,96,94,84,30.08,29.91,0,0,1,0.07
2014-6-13,82,69,66,72,67,65,97,93,71,29.92,29.70,3,0,7,1.29
2014-6-14,70,65,59,66,57,48,96,77,56,30.04,29.78,4,1,15,0.00
2014-6-15,79,66,55,60,55,51,87,68,47,30.12,30.03,4,0,13,0.00
2014-6-16,84,69,55,64,59,52,94,72,49,30.16,30.03,1,0,4,0.00
2014-6-17,92,78,64,72,66,61,91,70,46,30.06,29.86,1,0,4,0.00
2014-6-18,87,81,71,70,66,62,83,63,44,29.96,29.80,4,1,15,0.00
2014-6-19,78,71,65,69,66,62,93,84,72,30.01,29.92,0,0,3,0.03
2014-6-20,80,68,54,62,53,48,92,62,37,30.02,29.89,3,0,9,0.00
2014-6-21,79,67,55,57,52,48,84,61,44,29.98,29.86,1,0,9,0.00
2014-6-22,80,67,55,61,56,53,93,71,47,30.03,29.92,0,0,9,0.00
2014-6-23,81,70,55,63,59,52,94,70,52,30.14,30.03,1,0,9,0.00
2014-6-24,86,73,59,65,59,55,91,64,44,30.15,29.99,1,0,9,0.00
2014-6-25,88,76,66,74,68,58,92,78,58,30.02,29.81,2,0,9,0.50
2014-6-26,84,75,68,70,68,65,96,79,60,29.96,29.80,3,0,7,0.31
2014-6-27,84,74,68,66,64,58,90,72,48,30.22,29.96,1,0,4,0.00
2014-6-28,88,72,59,63,59,53,93,66,36,30.27,30.19,1,0,5,0.00
2014-6-29,84,71,59,66,61,57,94,71,51,30.26,30.10,1,0,4,0.00
2014-6-30,86,73,59,69,63,56,92,71,53,30.13,29.93,1,0,5,0.00
2014-7-1,92,80,68,73,69,64,89,72,53,29.96,29.80,2,0,7,0.00
2014-7-2,94,79,71,78,72,68,94,80,56,29.94,29.79,5,0,11,0.20
2014-7-3,90,76,69,78,72,66,96,88,67,30.01,29.84,3,0,8,1.32
2014-7-4,72,68,64,68,62,52,95,83,58,30.03,29.91,4,1,11,0.11
2014-7-5,81,70,60,57,53,50,72,56,40,30.16,30.02,5,1,8,0.00
2014-7-6,86,72,56,61,58,53,92,63,40,30.11,29.92,2,0,7,0.00
2014-7-7,90,80,68,71,66,60,83,65,50,29.93,29.72,4,0,8,0.00
2014-7-8,93,80,68,73,69,64,95,74,49,29.85,29.65,6,0,12,0.23
2014-7-9,88,76,68,69,66,64,89,74,50,29.95,29.76,6,0,11,0.00
2014-7-10,84,73,67,68,65,63,94,77,51,30.14,29.94,1,0,7,0.38
2014-7-11,86,72,62,66,63,59,95,75,42,30.22,30.13,1,0,3,0.01
2014-7-12,88,75,62,68,64,60,95,71,49,30.23,30.10,1,0,4,0.00
2014-7-13,86,77,69,75,69,61,90,77,67,30.12,29.86,5,0,14,0.38
2014-7-14,85,74,70,75,70,68,95,89,70,29.93,29.80,1,0,8,1.71
2014-7-15,81,75,72,76,72,70,96,92,79,29.82,29.71,0,0,3,0.57
2014-7-16,81,72,64,71,64,58,95,77,49,29.89,29.73,1,0,3,0.06
2014-7-17,81,68,60,63,59,56,94,75,45,30.11,29.88,2,0,5,0.00
2014-7-18,81,68,57,62,58,54,94,72,42,30.23,30.11,1,0,4,0.00
2014-7-19,77,68,61,64,60,58,94,77,54,30.25,30.17,0,0,4,0.00
2014-7-20,80,70,64,63,61,56,89,74,53,30.18,30.09,1,0,3,0.00
2014-7-21,86,72,59,67,63,57,95,75,49,30.20,30.12,1,0,3,0.00
2014-7-22,87,76,64,72,67,61,94,75,59,30.18,30.03,1,0,5,0.00
2014-7-23,91,79,69,76,70,64,91,75,59,30.03,29.75,2,0,7,0.05
2014-7-24,80,72,66,70,63,55,91,73,52,29.92,29.80,1,0,6,0.01
2014-7-25,82,70,58,63,57,54,91,67,44,30.04,29.92,0,0,6,0.00
2014-7-26,81,71,62,68,64,59,94,79,62,30.00,29.88,1,0,6,0.00
2014-7-27,87,76,68,72,69,66,94,80,56,29.90,29.64,1,0,6,0.09
2014-7-28,82,72,66,72,65,58,95,79,52,29.71,29.51,3,0,9,0.34
2014-7-29,74,66,58,58,55,52,86,69,50,29.98,29.70,2,0,8,0.00
2014-7-30,79,66,54,58,55,51,93,71,44,30.04,29.97,1,0,6,0.00
2014-7-31,84,69,56,65,60,54,95,74,48,30.14,30.04,1,0,7,0.00
2014-8-1,82,69,61,70,65,59,95,87,62,30.21,30.14,1,0,6,0.09
2014-8-2,74,68,63,66,64,61,95,87,71,30.19,30.09,0,0,6,0.09
2014-8-3,76,68,63,67,64,61,95,87,71,30.13,30.02,0,0,6,0.04
2014-8-4,86,74,66,68,65,64,93,76,51,30.07,30.00,1,0,6,0.00
2014-8-5,90,75,62,68,64,60,96,71,44,30.05,29.89,1,0,6,0.00
2014-8-6,83,73,66,64,62,58,88,69,48,29.93,29.83,2,0,9,0.00
2014-8-7,81,69,58,60,56,53,87,66,41,30.03,29.90,4,0,9,0.00
2014-8-8,81,68,55,61,56,52,92,68,45,30.10,30.02,2,0,8,0.00
2014-8-9,86,70,57,62,58,54,93,69,38,30.13,30.06,2,0,6,0.00
2014-8-10,86,72,56,65,59,54,94,68,42,30.15,30.07,0,0,3,0.00
2014-8-11,84,72,60,65,61,58,94,70,42,30.14,30.08,1,0,5,0.00
2014-8-12,76,70,64,70,66,61,95,85,75,30.09,29.84,2,0,6,0.26
2014-8-13,82,72,66,69,66,58,95,82,61,29.85,29.65,4,0,9,0.27
2014-8-14,77,68,60,58,54,51,78,63,47,29.90,29.78,3,0,8,0.00
2014-8-15,70,62,53,56,52,50,92,71,54,29.99,29.89,3,0,11,0.00
2014-8-16,79,69,54,57,54,51,91,61,42,30.01,29.91,1,0,5,0.00
2014-8-17,80,69,59,65,59,55,89,71,51,29.92,29.81,2,0,7,0.02
2014-8-18,81,68,58,59,56,53,86,68,45,29.93,29.81,3,0,10,0.00
2014-8-19,85,68,54,65,59,52,94,74,43,29.94,29.86,1,0,5,0.00
2014-8-20,85,72,63,67,62,57,94,74,50,30.03,29.93,1,0,3,0.00
2014-8-21,81,71,64,68,63,61,95,79,57,30.06,29.98,1,0,5,0.55
2014-8-22,73,67,63,66,63,61,95,89,74,30.06,29.98,0,0,3,0.23
2014-8-23,76,66,59,63,60,57,95,83,52,30.12,30.03,0,0,4,0.00
2014-8-24,79,68,57,63,60,55,95,77,54,30.16,30.09,1,0,3,0.00
2014-8-25,86,70,55,68,60,53,95,75,47,30.19,30.11,1,0,3,0.00
2014-8-26,90,73,60,67,63,58,95,73,44,30.17,30.05,1,0,3,0.00
2014-8-27,90,76,61,71,66,59,94,73,52,30.08,29.85,1,0,4,0.00
2014-8-28,78,72,60,70,57,49,90,62,46,30.07,29.85,4,1,11,0.00
2014-8-29,80,65,52,56,53,49,92,67,43,30.25,30.07,1,0,11,0.00
2014-8-30,77,66,51,66,59,49,94,77,60,30.28,30.14,0,0,4,0.00
2014-8-31,81,73,69,74,68,63,94,85,74,30.15,29.95,1,0,10,0.55
2014-9-1,88,79,72,74,72,70,95,81,60,30.01,29.90,1,0,10,0.00
2014-9-2,91,80,69,73,70,67,95,74,52,29.94,29.78,2,0,10,0.00
2014-9-3,85,75,65,68,62,58,89,67,44,30.11,29.82,2,0,7,0.00
2014-9-4,87,72,57,67,62,55,95,71,45,30.20,30.09,1,0,6,0.00
2014-9-5,88,75,63,75,69,61,94,83,64,30.17,30.00,1,0,5,0.00
2014-9-6,91,78,64,76,71,61,94,80,54,30.01,29.81,3,0,8,0.06
2014-9-7,81,68,60,61,58,55,93,72,43,30.20,29.95,1,0,5,0.00
2014-9-8,75,65,53,61,56,51,94,74,49,30.32,30.19,1,0,5,0.00
2014-9-9,72,64,56,61,58,53,92,79,65,30.28,30.14,0,0,5,0.00
2014-9-10,77,68,59,62,59,55,89,75,55,30.14,30.02,1,0,3,0.00
2014-9-11,81,72,65,71,66,57,91,82,69,30.03,29.81,1,0,6,0.00
2014-9-12,70,63,58,57,54,50,78,72,60,30.20,29.96,1,0,4,0.00
2014-9-13,66,59,53,60,54,49,94,85,76,30.19,30.09,1,0,5,0.13
2014-9-14,70,57,47,54,49,45,93,76,47,30.29,30.17,1,0,3,0.00
2014-9-15,72,57,43,52,47,41,94,73,44,30.25,30.08,1,0,7,0.00
2014-9-16,69,58,50,60,53,48,95,85,61,30.07,29.96,1,0,6,0.52
2014-9-17,72,57,44,52,47,42,95,72,42,30.08,29.96,1,0,5,0.00
2014-9-18,76,58,44,54,48,42,95,73,42,30.12,29.96,1,0,6,0.00
2014-9-19,65,56,49,52,47,42,92,74,53,30.38,30.12,1,0,6,0.00
2014-9-20,74,63,52,62,56,49,91,79,60,30.35,30.06,1,0,3,0.00
2014-9-21,76,68,62,68,64,59,96,89,76,30.06,29.61,0,0,2,0.03
2014-9-22,68,62,51,65,51,41,91,68,53,30.18,29.64,6,1,17,0.00
2014-9-23,75,56,42,52,45,39,91,70,40,30.42,30.18,0,0,5,0.00
2014-9-24,70,58,46,56,51,43,95,78,59,30.56,30.42,1,0,4,0.00
2014-9-25,63,59,54,58,54,52,92,85,79,30.47,30.23,0,0,2,0.30
2014-9-26,78,66,50,57,54,49,95,66,40,30.24,30.15,1,0,8,0.00
2014-9-27,85,64,48,60,54,46,95,74,38,30.24,30.15,0,0,5,0.00
2014-9-28,86,67,51,63,57,49,95,74,43,30.18,30.01,1,0,3,0.00
2014-9-29,76,66,58,64,60,56,94,80,59,30.01,29.90,0,0,1,0.00
2014-9-30,69,62,59,60,58,56,94,87,72,29.99,29.91,0,0,3,0.00
2014-10-1,64,61,59,59,57,55,92,88,81,30.08,29.98,0,0,2,0.00
2014-10-2,68,62,59,58,56,55,92,81,66,30.15,30.08,0,0,3,0.00
2014-10-3,70,61,54,55,53,50,92,77,52,30.13,29.85,2,0,4,0.00
2014-10-4,68,61,50,64,55,35,96,82,59,29.85,29.52,3,0,11,0.50
2014-10-5,59,49,40,41,37,34,88,65,47,30.00,29.71,3,1,11,0.00
2014-10-6,71,54,37,52,44,35,94,72,42,30.08,30.00,2,0,7,0.00
2014-10-7,72,63,56,59,54,51,91,73,53,30.06,29.89,2,0,9,0.09
2014-10-8,71,64,59,61,53,42,93,68,45,29.95,29.77,4,1,16,0.44
2014-10-9,66,57,46,44,42,39,83,58,41,30.06,29.94,4,0,11,0.00
2014-10-10,61,53,42,48,43,39,91,70,50,30.15,30.05,0,0,2,0.00
2014-10-11,53,50,43,49,47,41,94,90,83,30.19,30.04,0,0,1,0.37
2014-10-12,64,48,36,45,40,34,95,77,42,30.34,30.18,1,0,4,0.00
2014-10-13,63,53,40,57,49,38,94,87,72,30.35,30.24,0,0,2,0.03
2014-10-14,77,67,58,66,61,57,96,83,62,30.24,30.09,3,0,8,0.01
2014-10-15,76,70,68,69,66,64,94,88,79,30.09,29.82,2,0,7,0.59
2014-10-16,70,65,56,67,59,53,95,83,61,29.82,29.68,2,0,7,0.58
2014-10-17,70,61,55,54,53,51,92,76,53,29.75,29.67,3,0,7,0.00
2014-10-18,67,58,50,56,49,44,95,75,53,29.74,29.57,4,1,9,0.00
2014-10-19,54,48,39,45,35,29,72,60,45,30.08,29.73,9,2,19,0.00
2014-10-20,60,43,34,42,35,30,87,74,51,30.13,29.96,0,0,13,0.00
2014-10-21,64,52,44,54,48,41,94,85,66,29.97,29.82,1,0,5,0.36
2014-10-22,54,52,50,52,49,47,94,90,82,29.95,29.76,4,1,9,0.41
2014-10-23,53,51,50,50,47,44,92,85,77,29.80,29.71,5,1,12,0.17
2014-10-24,67,56,48,48,44,41,83,67,48,29.85,29.75,5,1,14,0.00
2014-10-25,68,56,42,48,43,37,84,62,47,29.88,29.56,5,0,9,0.00
2014-10-26,60,56,50,50,41,37,84,59,46,29.85,29.55,8,2,16,0.02
2014-10-27,64,53,43,40,38,36,85,60,37,30.04,29.84,4,0,12,0.00
2014-10-28,72,54,40,56,46,37,93,77,53,30.05,29.90,1,0,12,0.00
2014-10-29,68,54,46,59,48,43,95,84,45,29.95,29.85,7,0,13,0.07
2014-10-30,56,46,37,45,38,34,95,77,52,30.04,29.95,4,1,12,0.01
2014-10-31,51,43,32,43,36,29,93,77,60,30.04,29.87,1,0,12,0.00
2014-11-1,48,44,40,43,38,35,89,80,63,29.88,29.77,5,1,12,0.12
2014-11-2,46,42,39,36,28,21,80,59,40,30.07,29.78,11,5,23,0.00
2014-11-3,60,48,39,31,26,22,62,44,26,30.16,30.06,8,2,17,0.00
2014-11-4,69,59,48,41,32,26,55,38,26,30.17,30.01,3,0,17,0.00
2014-11-5,62,55,45,46,40,34,81,57,38,30.15,30.00,3,0,9,0.00
2014-11-6,48,47,45,46,44,39,94,90,75,30.13,29.59,0,0,1,0.45
2014-11-7,50,44,36,44,35,26,94,71,59,29.97,29.58,8,3,18,0.01
2014-11-8,47,40,31,32,28,24,76,62,49,30.06,29.91,3,0,15,0.00
2014-11-9,56,46,35,38,34,31,85,65,45,30.03,29.90,4,0,9,0.00
2014-11-10,61,44,30,40,34,27,93,72,42,30.18,30.03,2,0,5,0.00
2014-11-11,64,49,35,55,44,33,93,85,69,30.16,29.92,3,0,7,0.00
2014-11-12,64,53,44,58,47,31,95,80,59,30.09,29.88,6,1,15,0.00
2014-11-13,46,41,33,34,30,28,92,67,51,30.13,30.00,2,0,10,0.23
2014-11-14,40,35,29,33,23,18,92,65,41,30.20,29.97,8,2,15,0.04
2014-11-15,40,32,24,23,20,18,81,63,42,30.38,30.19,6,1,13,0.00
2014-11-16,41,33,23,33,26,19,88,75,59,30.40,30.10,0,0,13,0.02
2014-11-17,45,39,36,44,37,33,95,91,75,30.11,29.51,4,0,10,1.33
2014-11-18,43,28,22,35,11,5,74,49,37,30.12,29.62,10,5,23,0.01
2014-11-19,31,27,20,16,10,5,60,48,38,30.29,30.06,4,2,12,0.00
2014-11-20,43,32,20,26,18,9,82,58,41,30.06,29.85,8,2,17,0.00
2014-11-21,34,28,21,14,12,9,67,49,39,30.52,30.05,9,2,16,0.00
2014-11-22,41,31,16,23,17,12,83,57,38,30.52,30.20,5,1,13,0.00
2014-11-23,57,45,38,34,28,23,75,51,37,30.23,29.98,3,0,9,0.00
2014-11-24,71,62,41,61,56,32,95,80,65,29.98,29.55,7,4,14,0.56
2014-11-25,64,54,43,58,38,31,81,56,44,30.17,29.73,5,1,11,0.00
2014-11-26,44,36,32,36,32,30,93,84,60,30.22,29.81,4,1,11,0.21
2014-11-27,35,34,30,31,29,24,89,83,72,30.08,29.86,4,0,10,0.31
2014-11-28,34,28,20,24,19,14,86,70,52,30.28,30.07,7,1,15,0.00
2014-11-29,32,26,18,24,19,15,89,74,58,30.38,30.22,0,0,9,0.00
2014-11-30,45,39,31,36,32,24,86,76,66,30.22,30.08,2,0,9,0.00
2014-12-1,64,48,38,51,40,26,84,73,62,30.48,30.07,7,2,12,0.10
2014-12-2,40,36,32,38,27,18,92,73,55,30.63,30.30,4,0,9,0.09
2014-12-3,44,41,38,41,37,26,94,86,62,30.30,29.97,5,1,12,0.10
2014-12-4,43,36,29,27,24,20,74,61,46,30.54,30.23,5,1,10,0.00
2014-12-5,38,33,25,36,28,20,93,81,70,30.60,30.34,1,0,9,0.34
2014-12-6,44,40,38,42,39,36,94,93,90,30.35,30.09,6,1,12,0.93
2014-12-7,40,36,26,36,22,9,90,60,35,30.64,30.21,8,4,17,0.00
2014-12-8,32,26,21,26,15,4,81,64,41,30.72,30.36,4,1,9,0.00
2014-12-9,42,37,32,39,34,26,94,88,80,30.36,29.69,7,3,13,0.86
2014-12-10,41,40,40,35,34,34,81,80,80,29.70,29.65,4,2,10,0.00
2014-12-15,41,33,30,32,29,27,88,83,70,30.12,30.08,0,0,1,0.00
2014-12-16,46,38,28,41,34,25,93,88,77,30.12,29.84,4,0,5,0.15
2014-12-17,51,44,38,42,38,28,98,78,62,29.91,29.81,7,2,17,0.01
2014-12-18,40,37,36,28,26,24,72,64,58,30.02,29.88,10,4,17,0.00
2014-12-19,36,33,30,27,24,21,72,67,61,30.21,29.98,7,3,17,0.00
2014-12-20,31,30,29,23,22,21,74,71,67,30.32,30.19,3,0,12,0.00
2014-12-21,34,32,29,28,26,23,83,79,74,30.35,30.28,2,0,6,0.00
2014-12-22,42,37,32,40,33,28,94,87,82,30.35,30.15,2,0,12,0.01
2014-12-23,45,44,42,44,42,40,95,94,93,30.17,30.07,2,0,7,0.15
2014-12-24,48,45,43,47,44,42,95,95,94,30.09,29.52,0,0,6,0.50
2014-12-25,61,49,40,60,39,30,96,68,50,30.14,29.50,9,3,21,0.06
2014-12-26,49,39,34,32,30,28,81,70,52,30.27,30.13,4,0,11,0.00
2014-12-27,56,41,30,38,32,27,92,73,50,30.28,30.06,2,0,7,0.00
2014-12-28,53,44,40,44,38,30,91,77,65,30.09,29.87,6,1,11,0.09
2014-12-29,40,35,28,30,23,20,83,62,45,30.28,30.08,5,1,11,0.00
2014-12-30,33,28,24,22,16,13,77,62,50,30.42,30.27,5,1,12,0.00
2014-12-31,31,26,20,16,12,9,75,57,42,30.37,30.18,7,1,12,0.00
2015-1-1,37,28,18,19,14,10,76,55,40,30.19,29.98,6,1,15,0.00
2015-1-2,40,34,26,22,20,18,77,57,45,30.47,30.01,7,1,15,0.00